Back to catalog

STARLINK-30122

AliveCommunicationsVLEO
NORAD 56688·PAYLOAD·🇺🇸 United States

Launched May 19, 2023 from Cape Canaveral Space Force Station

Loading…

Next Passes (next 24 hours)

TLE

FreshSource: CelesTrak SupGP

Epoch: Sep 14, 2026, 14:33 UTC

1 56688C 23067A   26257.60673611  .00046216  00000+0  16738-2 0  2575
2 56688  43.0024 291.1685 0001735 279.9027 303.7346 15.27558254    13

Track STARLINK-30122 in real time with AllMySat

Download on the App Store